TimeCDT,TemperatureF,Dew PointF,Humidity,Sea Level PressureIn,VisibilityMPH,Wind Direction,Wind SpeedMPH,Gust SpeedMPH,PrecipitationIn,Events,Conditions,WindDirDegrees,DateUTC
12:55 AM,77.0,71.6,83,30.06,10.0,ENE,3.5,-,N/A,,Partly Cloudy,60,2013-08-24 05:55:00
1:55 AM,77.0,71.6,83,30.06,10.0,ENE,4.6,-,N/A,,Clear,70,2013-08-24 06:55:00
2:55 AM,75.2,71.6,89,30.06,10.0,Calm,Calm,-,N/A,,Clear,0,2013-08-24 07:55:00
3:15 AM,75.2,71.6,89,30.07,10.0,Calm,Calm,-,N/A,,Clear,0,2013-08-24 08:15:00
3:35 AM,73.4,71.6,94,30.08,10.0,Calm,Calm,-,N/A,,Clear,0,2013-08-24 08:35:00
3:55 AM,73.4,71.6,94,30.08,10.0,Calm,Calm,-,N/A,,Clear,0,2013-08-24 08:55:00
4:15 AM,73.4,71.6,94,30.07,10.0,Calm,Calm,-,N/A,,Clear,0,2013-08-24 09:15:00
4:35 AM,71.6,71.6,100,30.08,7.0,Calm,Calm,-,N/A,,Clear,0,2013-08-24 09:35:00
4:55 AM,73.4,71.6,94,30.08,8.0,Calm,Calm,-,N/A,,Clear,0,2013-08-24 09:55:00
5:15 AM,71.6,71.6,100,30.08,8.0,Calm,Calm,-,N/A,,Clear,0,2013-08-24 10:15:00
5:35 AM,73.4,71.6,94,30.08,9.0,Calm,Calm,-,N/A,,Clear,0,2013-08-24 10:35:00
5:55 AM,73.4,71.6,94,30.09,10.0,NE,3.5,-,N/A,,Clear,40,2013-08-24 10:55:00
6:55 AM,73.4,71.6,94,30.12,8.0,ENE,3.5,-,N/A,,Clear,60,2013-08-24 11:55:00
7:55 AM,75.2,71.6,89,30.13,10.0,ENE,3.5,-,N/A,,Clear,70,2013-08-24 12:55:00
8:55 AM,80.6,73.4,79,30.14,10.0,Variable,3.5,-,N/A,,Clear,0,2013-08-24 13:55:00
9:55 AM,84.2,75.2,74,30.15,10.0,Variable,4.6,-,N/A,,Clear,0,2013-08-24 14:55:00
10:55 AM,87.8,75.2,66,30.15,10.0,NNE,4.6,-,N/A,,Clear,20,2013-08-24 15:55:00
11:55 AM,89.6,75.2,62,30.13,10.0,ENE,6.9,-,N/A,,Scattered Clouds,60,2013-08-24 16:55:00
12:55 PM,89.6,75.2,62,30.13,10.0,ENE,4.6,-,N/A,,Mostly Cloudy,60,2013-08-24 17:55:00
1:55 PM,91.4,73.4,55,30.12,10.0,NNE,6.9,-,N/A,,Clear,20,2013-08-24 18:55:00
2:55 PM,91.4,75.2,59,30.11,10.0,NE,5.8,-,N/A,,Scattered Clouds,40,2013-08-24 19:55:00
3:55 PM,91.4,75.2,59,30.10,10.0,NE,8.1,-,N/A,,Scattered Clouds,40,2013-08-24 20:55:00
4:55 PM,91.4,73.4,55,30.09,10.0,Variable,6.9,-,N/A,,Scattered Clouds,0,2013-08-24 21:55:00
5:55 PM,89.6,73.4,59,30.09,10.0,Variable,5.8,-,N/A,,Partly Cloudy,0,2013-08-24 22:55:00
6:55 PM,87.8,75.2,66,30.10,10.0,Variable,3.5,-,N/A,,Partly Cloudy,0,2013-08-24 23:55:00
7:55 PM,84.2,73.4,70,30.11,10.0,NE,3.5,-,N/A,,Clear,50,2013-08-25 00:55:00
8:55 PM,82.4,73.4,74,30.13,10.0,NE,3.5,-,N/A,,Clear,50,2013-08-25 01:55:00
9:55 PM,80.6,73.4,79,30.15,10.0,NE,3.5,-,N/A,,Clear,50,2013-08-25 02:55:00
10:55 PM,80.6,73.4,79,30.15,10.0,ENE,4.6,-,N/A,,Clear,60,2013-08-25 03:55:00
11:55 PM,80.6,73.4,79,30.15,10.0,NE,4.6,-,N/A,,Clear,50,2013-08-25 04:55:00